Probability
3 3 0 0 0 0 0 0 0 0 0 0 0 3 6 6 3 10 16 23 29 42 39 35 39 42 58 77 84 84 84 84 84 81 77 77 71 71 68 71 65 65 68 74
3 0 0 0 0 0 0 0 0 0 0 0 0 0 10 10 3 10 16 26 29 39 45 45 42 42 55 77 84 81 81 81 77 81 77 81 74 71 68 71 68 65 68 71
0 0 0 0 0 0 0 0 0 0 0 0 0 0 6 6 6 10 16 26 32 45 52 52 55 48 55 74 81 71 81 81 77 81 77 74 77 77 74 74 74 68 65 61
0 0 0 0 0 0 0 0 0 0 0 0 0 0 3 6 6 16 16 19 35 35 55 52 58 55 48 65 65 77 77 81 81 81 77 77 77 74 77 74 68 65 68 61
0 0 0 0 0 0 0 0 0 0 0 0 0 0 3 10 6 16 16 23 26 35 39 58 58 58 58 55 65 74 77 81 81 81 81 77 77 77 77 68 68 65 68 65
0 0 0 0 0 0 0 0 0 0 0 0 0 0 3 6 6 13 19 23 29 39 45 58 55 58 61 55 61 74 77 81 81 77 81 77 81 84 77 71 71 68 61 61
0 0 0 0 0 0 0 0 0 0 0 0 0 0 0 3 6 10 26 32 32 45 45 48 52 55 58 58 61 71 74 77 74 71 77 84 81 81 74 71 68 71 65 61
0 0 0 0 0 0 0 0 0 0 0 0 0 0 10 10 10 10 26 23 32 32 42 42 52 55 58 52 52 58 68 74 74 71 74 77 77 77 74 74 74 68 58 55
0 0 0 0 0 0 0 0 0 0 0 3 0 0 10 16 10 10 13 19 23 26 35 42 48 45 52 52 58 65 74 74 71 71 71 71 74 74 71 71 71 61 61 55
0 0 0 0 0 0 0 0 3 0 3 0 0 3 10 19 19 19 19 26 29 29 29 29 45 52 55 55 58 68 71 74 71 71 68 65 68 65 68 68 71 68 61 58
0 0 0 0 0 0 0 0 0 0 0 0 0 0 10 23 29 16 26 26 35 32 32 42 48 48 52 52 55 68 71 74 68 68 65 68 65 61 68 65 58 61 58 55
0 0 0 0 0 0 0 0 0 3 3 0 0 3 10 23 26 26 29 32 29 32 32 42 42 52 48 48 55 58 68 68 68 68 68 61 61 65 58 58 58 58 58 58
0 0 0 0 0 0 0 0 0 0 0 0 0 6 16 23 29 26 29 35 42 48 45 39 42 48 45 45 48 52 61 61 61 61 61 61 65 61 61 58 58 61 61 58
0 0 0 0 0 0 0 0 0 0 0 3 3 10 19 23 26 29 29 42 45 55 61 48 58 61 61 61 71 71 55 52 58 58 55 61 61 58 61 61 55 52 58 55
0 0 0 0 0 0 0 0 0 0 0 0 3 6 13 29 29 32 29 48 48 55 58 61 65 68 71 71 74 68 68 68 58 52 52 58 58 55 55 61 55 48 48 45
0 0 0 0 0 0 0 0 0 0 0 0 10 13 19 29 32 39 39 42 52 55 55 58 58 65 68 68 65 61 58 61 61 58 52 58 55 58 55 52 52 52 52 48
0 0 0 0 0 0 0 0 0 0 0 0 13 19 26 26 32 32 32 35 45 48 55 55 52 65 71 68 65 55 52 55 61 61 58 58 58 58 55 52 52 48 52 55
0 3 3 0 0 0 0 0 0 0 6 6 23 23 23 23 32 26 26 42 42 42 48 45 48 58 58 55 55 58 55 58 65 61 61 58 65 61 61 58 58 58 55 48
0 6 0 0 0 0 0 0 0 0 3 13 23 19 23 23 16 19 16 26 32 35 48 42 42 48 52 52 52 48 45 55 52 55 61 58 65 61 58 55 55 55 55 55
0 0 0 0 0 0 3 3 3 3 6 16 19 23 23 23 16 26 23 26 29 45 42 39 42 42 45 48 39 45 45 48 45 45 45 55 58 55 58 55 58 48 55 52
0 0 0 3 0 3 3 3 3 3 16 23 23 26 19 32 26 19 26 26 39 39 35 35 39 42 45 45 39 45 45 45 45 45 52 52 58 58 55 55 55 48 39 42
0 0 3 6 0 3 10 6 16 29 26 23 23 26 29 26 19 19 26 39 39 35 29 29 32 32 39 42 45 52 45 45 48 52 48 48 52 42 35 45 48 48 48 45
3 6 0 6 10 29 13 19 23 19 26 23 19 19 26 19 13 13 29 39 39 32 26 26 26 29 35 42 45 45 48 45 45 48 48 48 48 48 45 45 45 42 45 32
3 6 10 13 10 10 10 13 10 13 16 19 19 16 16 16 13 16 23 29 29 26 26 26 26 26 32 42 42 42 45 42 45 48 52 52 48 45 48 39 32 35 26 19
0 3 13 13 10 6 13 10 10 13 13 10 13 16 16 16 10 23 29 29 29 29 26 32 29 29 29 35 35 39 42 42 48 52 48 45 39 39 48 42 39 32 35 26
0 0 10 10 16 19 19 19 13 13 13 16 13 10 13 13 16 23 26 29 29 26 32 35 35 35 29 35 35 42 42 39 45 45 45 35 29 32 35 35 26 23 19 16
Height
5908 5910 5912 5914 5915 5917 5918 5919 5919 5919 5919 5920 5919 5917 5915 5914 5913 5911 5910 5909 5908 5908 5907 5906 5905 5904 5903 5902 5901 5901 5899 5899 5898 5897 5896 5895 5895 5894 5893 5892 5890 5889 5889 5888
5908 5910 5912 5912 5914 5916 5918 5919 5919 5919 5919 5919 5918 5917 5915 5915 5913 5911 5911 5910 5909 5908 5908 5907 5906 5905 5904 5903 5902 5901 5900 5899 5898 5896 5896 5895 5894 5894 5893 5892 5890 5889 5888 5888
5906 5910 5910 5912 5913 5915 5917 5917 5917 5918 5917 5917 5917 5917 5914 5912 5912 5911 5910 5909 5908 5908 5908 5907 5906 5905 5904 5903 5902 5901 5900 5899 5898 5896 5895 5894 5894 5893 5892 5891 5890 5889 5888 5887
5904 5907 5908 5910 5912 5913 5915 5916 5916 5916 5916 5915 5916 5916 5914 5912 5911 5910 5908 5909 5908 5907 5907 5906 5906 5905 5904 5903 5902 5901 5900 5899 5897 5896 5895 5894 5894 5893 5892 5891 5890 5889 5888 5887
5902 5904 5906 5908 5910 5911 5912 5913 5913 5914 5914 5914 5914 5914 5913 5911 5910 5909 5907 5907 5907 5906 5906 5905 5905 5904 5903 5902 5901 5900 5899 5898 5897 5896 5895 5894 5893 5892 5891 5890 5889 5888 5888 5887
5899 5902 5904 5906 5907 5908 5910 5911 5911 5912 5912 5912 5912 5913 5912 5909 5909 5908 5906 5907 5907 5906 5905 5904 5904 5903 5902 5901 5900 5900 5899 5898 5897 5896 5895 5894 5892 5891 5891 5889 5888 5887 5886 5885
5897 5899 5901 5903 5904 5906 5907 5909 5910 5910 5909 5909 5909 5909 5910 5907 5907 5907 5906 5905 5905 5904 5904 5903 5902 5902 5901 5900 5899 5899 5898 5897 5896 5895 5894 5893 5892 5890 5889 5888 5887 5886 5884 5883
5894 5897 5898 5899 5901 5903 5905 5907 5908 5909 5908 5908 5906 5906 5906 5905 5905 5904 5904 5904 5903 5903 5902 5902 5901 5900 5899 5898 5898 5897 5896 5895 5894 5894 5893 5891 5890 5889 5888 5886 5885 5883 5882 5881
5892 5894 5896 5896 5897 5899 5901 5903 5905 5906 5905 5906 5905 5904 5903 5903 5902 5902 5902 5902 5902 5901 5900 5900 5899 5898 5897 5896 5896 5895 5894 5894 5893 5892 5891 5890 5888 5887 5886 5884 5882 5881 5880 5878
5888 5890 5893 5894 5895 5896 5899 5900 5902 5903 5903 5903 5903 5902 5901 5901 5900 5899 5899 5899 5899 5899 5898 5897 5896 5896 5895 5894 5893 5893 5892 5891 5890 5889 5888 5887 5886 5885 5883 5882 5880 5878 5877 5875
5883 5886 5889 5891 5891 5893 5894 5896 5897 5899 5900 5900 5900 5900 5898 5897 5897 5896 5896 5896 5896 5895 5895 5894 5894 5893 5892 5891 5891 5890 5889 5888 5888 5887 5886 5884 5883 5882 5880 5879 5877 5876 5874 5873
5878 5881 5883 5886 5888 5888 5890 5892 5894 5896 5895 5896 5895 5897 5895 5892 5893 5893 5892 5892 5892 5892 5892 5891 5890 5890 5889 5888 5887 5887 5886 5885 5885 5884 5883 5881 5880 5879 5877 5876 5874 5872 5871 5869
5873 5876 5878 5881 5885 5885 5885 5887 5888 5891 5892 5892 5893 5895 5891 5888 5889 5889 5888 5888 5888 5888 5888 5887 5886 5885 5885 5885 5884 5883 5882 5881 5881 5880 5879 5878 5876 5875 5873 5871 5870 5868 5867 5866
5868 5871 5874 5877 5878 5880 5879 5881 5882 5884 5886 5887 5888 5888 5885 5885 5885 5885 5884 5884 5883 5884 5884 5883 5883 5881 5881 5881 5880 5879 5878 5877 5876 5876 5875 5873 5872 5870 5868 5867 5866 5864 5862 5861
5863 5865 5867 5869 5871 5872 5874 5876 5877 5878 5880 5881 5882 5882 5881 5881 5881 5879 5879 5879 5879 5879 5879 5879 5879 5878 5877 5877 5876 5875 5874 5873 5872 5871 5870 5869 5867 5866 5864 5862 5860 5859 5857 5856
5857 5859 5861 5864 5866 5867 5869 5871 5873 5874 5874 5875 5875 5876 5875 5875 5874 5873 5874 5874 5874 5874 5874 5874 5874 5873 5873 5872 5871 5870 5869 5868 5867 5866 5865 5863 5862 5860 5859 5857 5855 5853 5852 5850
5852 5854 5856 5858 5860 5861 5863 5866 5866 5866 5867 5869 5868 5869 5869 5868 5868 5868 5867 5868 5868 5868 5868 5868 5868 5868 5867 5867 5866 5865 5864 5863 5862 5861 5859 5858 5856 5854 5852 5851 5849 5848 5846 5844
5846 5848 5850 5852 5854 5855 5859 5860 5860 5859 5860 5861 5860 5861 5862 5862 5861 5862 5861 5862 5862 5862 5861 5862 5862 5862 5861 5861 5860 5859 5858 5858 5856 5855 5854 5852 5850 5848 5847 5845 5843 5842 5840 5838
5841 5842 5844 5846 5848 5849 5852 5852 5852 5853 5853 5854 5854 5855 5856 5855 5855 5854 5854 5855 5856 5854 5854 5854 5853 5854 5854 5854 5853 5852 5852 5851 5850 5848 5847 5845 5844 5842 5840 5839 5837 5835 5833 5831
5835 5836 5838 5839 5841 5843 5845 5844 5845 5847 5846 5846 5847 5847 5848 5848 5849 5848 5847 5847 5848 5848 5848 5847 5846 5846 5847 5847 5846 5845 5844 5844 5842 5841 5840 5838 5836 5834 5833 5831 5830 5828 5826 5824
5827 5829 5831 5833 5834 5835 5836 5837 5839 5841 5840 5839 5839 5840 5840 5840 5841 5840 5839 5840 5839 5840 5840 5840 5839 5839 5839 5839 5838 5837 5836 5835 5834 5833 5831 5829 5828 5826 5825 5823 5822 5820 5818 5816
5820 5822 5823 5825 5827 5828 5828 5830 5831 5832 5831 5831 5832 5833 5832 5832 5831 5831 5832 5832 5832 5832 5832 5831 5831 5831 5831 5830 5829 5829 5828 5827 5826 5824 5822 5820 5819 5818 5816 5815 5813 5812 5810 5808
5812 5815 5816 5817 5819 5819 5820 5821 5821 5823 5823 5823 5824 5824 5824 5823 5823 5823 5823 5824 5824 5823 5823 5822 5822 5822 5820 5820 5820 5820 5819 5818 5817 5815 5813 5811 5810 5809 5808 5806 5805 5803 5801 5800
5804 5805 5807 5808 5810 5812 5812 5812 5813 5813 5814 5815 5815 5816 5816 5815 5815 5814 5815 5815 5815 5814 5814 5813 5813 5813 5812 5811 5811 5811 5810 5809 5808 5806 5805 5803 5802 5800 5799 5797 5796 5794 5792 5792
5795 5797 5799 5800 5802 5803 5803 5804 5804 5805 5805 5805 5806 5807 5807 5806 5806 5807 5807 5807 5806 5806 5806 5805 5805 5804 5803 5803 5803 5802 5801 5800 5799 5797 5796 5794 5793 5792 5790 5788 5787 5786 5784 5783
5789 5790 5790 5791 5792 5794 5795 5796 5796 5796 5796 5796 5797 5798 5798 5798 5798 5798 5798 5798 5798 5797 5797 5796 5796 5795 5794 5794 5794 5793 5792 5791 5790 5788 5786 5785 5784 5782 5781 5779 5778 5777 5776 5775
Wind_Speed
8 8 7 7 6 5 4 4 6 5 4 6 7 8 7 8 10 8 8 7 6 6 7 8 8 8 8 8 8 8 8 8 8 8 7 7 8 8 8 8 9 8 8 9
10 10 10 9 8 7 6 7 7 7 7 7 8 9 10 8 9 7 7 7 7 6 7 8 8 8 8 9 9 8 8 8 8 8 8 8 8 9 9 9 9 9 9 9
12 10 11 10 9 9 9 9 8 8 9 8 8 10 12 10 10 9 8 8 7 7 7 7 8 9 9 9 9 9 9 8 8 8 8 9 9 9 9 10 9 9 9 9
13 12 12 12 11 11 9 10 10 10 10 10 8 10 13 12 13 11 8 9 10 8 8 8 8 9 9 9 9 9 9 9 9 9 9 9 9 9 9 10 9 10 9 9
13 14 14 14 14 12 11 10 10 10 10 11 10 10 14 13 12 13 10 10 11 10 10 10 9 10 9 9 9 9 9 9 9 9 9 9 9 9 9 9 9 9 9 9
15 15 14 15 15 13 11 10 9 10 11 14 11 10 13 13 13 13 13 10 12 12 11 11 11 10 10 10 10 10 10 10 10 10 10 10 10 10 10 11 11 11 11 11
16 17 16 16 15 13 12 12 12 13 14 14 11 12 13 14 12 12 12 12 12 12 11 12 12 12 11 11 11 11 11 10 10 11 11 12 12 12 12 12 12 13 13 13
16 17 16 16 16 14 14 13 12 12 12 12 11 11 13 14 13 13 13 13 13 12 12 12 12 12 12 12 12 12 11 11 11 12 12 13 13 13 13 14 14 14 14 14
15 14 15 16 15 14 14 14 14 14 12 13 13 12 13 16 15 14 14 13 13 13 13 13 13 13 13 13 13 12 12 12 12 12 13 14 14 15 15 14 14 14 15 14
16 16 14 16 17 17 16 14 13 14 14 14 14 13 15 17 16 15 16 14 14 14 14 14 14 14 14 14 14 14 13 13 13 14 14 15 15 15 15 15 15 15 15 15
19 19 17 17 19 17 15 16 16 15 15 15 15 13 15 16 17 17 18 16 15 15 15 16 15 15 16 15 15 15 15 15 15 15 15 16 16 16 16 16 16 17 16 16
21 20 20 20 19 18 17 17 16 17 16 15 16 16 15 15 16 18 18 17 17 16 17 17 17 17 17 17 16 16 16 16 16 16 17 17 17 17 18 18 18 18 17 17
22 21 20 19 19 19 19 19 18 18 17 17 17 18 17 17 17 17 18 18 17 17 18 18 18 18 18 18 17 17 17 17 17 18 18 18 19 19 20 19 19 19 18 19
23 21 21 19 18 18 19 18 18 18 19 19 19 18 20 19 19 19 19 19 18 17 18 19 18 19 19 19 19 19 19 19 19 19 19 20 21 21 21 20 20 20 20 21
24 23 22 22 20 18 17 17 17 19 20 20 20 20 20 20 21 22 21 21 20 19 19 19 20 20 20 20 20 21 21 20 20 21 21 22 23 23 22 22 22 22 22 21
25 24 23 23 21 20 20 19 20 21 21 22 22 23 24 22 23 24 23 23 22 22 21 21 21 21 22 22 22 22 23 23 22 22 22 23 23 23 23 23 24 24 23 23
24 25 24 23 21 22 23 22 23 24 24 24 26 25 24 24 24 25 26 24 24 24 24 24 24 23 23 23 23 24 24 24 24 24 24 24 24 25 24 24 25 25 24 24
25 25 24 23 22 23 22 21 23 23 24 26 27 27 27 27 27 27 28 27 26 26 26 26 25 25 25 25 26 26 26 26 26 26 27 27 27 26 26 26 26 27 26 26
23 26 26 24 23 22 22 23 25 25 26 28 27 27 28 29 30 30 29 27 27 27 27 27 27 26 27 27 27 27 28 28 28 28 28 28 28 28 28 28 27 28 28 28
25 26 26 26 25 23 25 25 26 24 25 28 28 29 29 30 30 32 30 28 28 29 29 29 29 29 28 28 28 28 29 30 30 30 31 31 31 29 29 29 29 29 29 28
26 26 27 27 26 25 26 26 27 28 29 28 28 29 29 31 33 33 32 31 31 31 30 30 30 30 29 30 30 30 30 30 31 31 32 32 32 31 31 30 30 30 30 30
27 27 28 28 28 29 29 30 31 32 30 30 31 31 32 33 33 33 33 33 31 32 32 31 31 31 30 30 31 31 31 31 32 32 33 32 32 31 31 30 30 30 30 30
29 29 30 30 32 32 31 32 32 32 31 31 31 31 32 33 32 33 33 33 33 32 32 32 31 31 32 31 32 32 32 32 33 33 33 32 32 31 31 31 30 30 29 29
31 32 33 32 32 33 33 33 34 33 34 32 31 33 34 34 32 31 32 33 34 33 33 32 32 32 31 32 32 32 32 32 32 33 33 32 32 31 32 31 31 30 30 29
32 32 33 34 35 36 36 35 34 35 34 33 33 32 33 34 32 32 33 32 32 33 33 33 33 33 33 33 33 33 33 33 33 33 33 33 33 33 32 31 30 30 30 30
33 33 33 34 34 34 35 34 35 35 34 34 35 34 33 34 34 34 34 33 33 33 33 34 34 35 33 34 34 33 34 34 34 35 34 33 33 33 33 32 31 31 31 32
Wind_Direction
205 219 212 208 222 230 258 269 284 290 278 284 299 307 313 323 321 332 336 342 352 5 6 11 12 11 11 7 3 359 0 358 353 348 345 346 349 351 350 347 344 345 346 347
216 224 223 225 226 228 240 257 264 283 277 275 287 297 303 308 309 318 325 325 333 344 353 353 354 356 357 356 356 353 352 349 348 346 345 346 348 347 347 347 347 347 345 346
217 219 224 224 230 238 239 255 264 264 269 273 282 291 293 301 304 310 309 316 314 326 333 341 340 341 343 345 348 346 344 346 351 350 349 349 346 342 343 345 345 346 343 346
217 218 225 228 231 231 239 250 257 262 267 278 279 285 291 297 303 306 304 314 312 315 318 324 330 331 330 333 338 340 339 341 346 347 345 343 338 335 335 337 340 345 348 349
218 221 227 234 233 230 235 245 250 254 256 266 269 271 282 290 295 304 302 304 311 312 313 315 317 319 319 322 329 331 332 336 339 340 340 337 336 333 333 334 335 334 336 338
222 230 231 238 238 235 241 251 253 257 259 262 265 268 267 277 291 296 296 296 298 304 305 307 310 309 311 312 319 321 324 327 330 332 335 336 335 331 328 327 325 326 326 325
226 227 229 234 238 237 237 245 253 260 264 269 270 266 271 275 278 281 286 289 288 293 297 301 303 306 307 309 314 317 321 320 325 327 329 329 327 326 323 319 319 321 322 320
236 233 233 238 238 237 237 241 250 263 272 276 278 268 265 271 271 270 270 275 280 287 292 294 298 300 301 302 307 312 316 314 317 319 320 322 323 321 317 314 315 319 320 319
230 244 245 248 244 240 239 240 245 256 260 268 271 271 272 274 273 276 276 275 279 283 285 287 290 294 297 298 301 303 306 307 308 309 311 314 315 315 314 315 317 315 316 316
223 234 240 247 245 241 242 244 246 246 255 266 265 268 274 276 277 280 280 281 280 278 280 282 285 288 292 292 294 297 300 302 304 305 305 309 311 311 312 312 311 312 312 312
226 232 237 241 247 244 240 242 245 246 244 255 266 265 268 273 276 277 279 277 275 273 273 278 281 283 286 288 290 292 295 296 298 300 301 304 308 309 309 307 306 307 309 308
228 229 234 239 245 244 243 242 242 250 254 254 263 262 268 269 273 277 280 278 275 275 274 275 277 279 282 286 288 289 290 293 295 297 299 300 303 306 306 305 303 303 306 306
229 231 237 240 244 249 249 246 238 240 247 252 261 268 267 268 273 277 279 279 274 273 274 274 278 278 279 284 287 288 288 290 291 293 296 298 301 302 302 300 300 301 302 303
230 233 237 240 240 249 255 252 242 238 240 246 252 259 263 269 274 276 278 280 278 276 274 272 274 278 280 282 284 286 288 289 290 291 294 297 299 300 299 298 299 299 300 300
233 235 239 236 239 242 251 255 248 244 243 244 248 254 257 261 268 272 275 279 280 278 276 274 274 277 279 281 283 284 285 287 290 292 293 295 296 297 296 297 298 299 301 303
237 238 239 238 239 242 244 245 248 247 248 247 249 251 254 257 262 266 269 273 276 276 275 274 273 275 277 278 280 283 284 286 290 291 293 294 295 295 297 298 298 299 300 301
244 243 240 241 243 245 246 247 249 249 246 247 250 252 255 256 260 266 268 270 274 274 274 274 276 275 275 276 278 281 284 286 288 289 292 293 294 295 297 299 298 297 297 298
249 246 245 246 246 247 248 249 250 253 248 247 252 254 256 259 262 264 268 269 270 273 273 274 274 274 275 276 278 279 281 283 285 288 290 292 293 295 296 297 297 295 295 297
246 249 247 245 247 250 248 246 247 248 251 252 255 259 262 261 263 265 268 269 269 272 275 275 272 274 275 276 276 277 279 282 284 287 288 290 291 292 293 293 294 295 295 295
241 246 248 245 246 248 247 248 250 252 256 256 259 260 261 262 262 265 267 270 271 273 275 275 275 275 274 275 276 277 279 281 283 285 287 289 289 290 291 292 292 293 293 294
240 241 244 245 247 250 249 249 252 254 257 259 261 262 264 267 266 264 267 269 270 272 273 273 274 274 273 274 276 277 279 281 283 285 286 288 288 289 290 290 290 290 291 292
245 243 244 246 245 248 251 252 252 255 258 259 261 263 265 268 265 266 268 269 271 272 272 272 272 273 273 273 275 276 279 281 283 284 285 286 286 286 288 289 289 289 291 292
242 242 242 243 245 249 253 256 258 259 260 262 264 264 266 269 268 267 268 270 271 271 271 272 272 273 273 273 275 278 279 281 282 283 284 285 285 284 286 287 288 288 290 291
244 242 244 247 249 251 255 258 258 258 260 262 263 263 266 269 270 269 270 272 272 273 274 273 271 273 274 275 277 278 279 280 282 283 283 283 283 284 285 286 287 288 288 289
247 247 247 249 251 251 253 255 258 259 261 263 263 263 264 266 268 271 271 271 273 275 275 274 273 273 272 275 276 277 278 280 281 282 282 283 284 285 286 287 288 288 289 290
248 249 249 251 253 254 257 258 260 260 262 264 267 267 267 268 270 271 271 271 272 274 275 274 275 274 274 275 276 277 279 280 282 283 282 282 283 284 286 287 287 287 289 291